GW1914 Weather Reports


Display with metric or nautical units.
time (UTC)temp
F
wind
direction
speed
MPH
gust
MPH
rain 1hr
in
rain 24hr
in
rain mn
in
humidity
%
barometer
mb
20260906111538 50 101 1.0 6.0 0.00 0.01 0.00 84 1018.4
20260906111026 51 265 1.0 6.0 0.00 0.01 0.00 84 1018.4
20260906110536 51 258 3.0 6.0 0.00 0.01 0.00 86 1018.3
20260906110029 51 248 0.0 1.0 0.00 0.01 0.00 84 1018.4
20260906105517 51 254 0.0 2.0 0.00 0.01 0.00 85 1018.4
20260906105031 50 253 0.0 3.0 0.00 0.01 0.00 86 1018.4
20260906104537 50 267 0.0 4.0 0.00 0.01 0.00 85 1018.6
20260906104034 50 262 1.0 3.0 0.00 0.01 0.00 85 1018.6
20260906103522 51 258 0.0 3.0 0.00 0.01 0.00 85 1018.7
20260906103039 51 309 0.0 0.0 0.00 0.01 0.00 85 1018.7
20260906102533 51 309 0.0 4.0 0.00 0.01 0.00 84 1018.6
20260906102021 51 309 0.0 4.0 0.00 0.01 0.00 85 1018.7
20260906101537 50 264 2.0 3.0 0.00 0.01 0.00 84 1018.7
20260906101025 50 253 0.0 4.0 0.00 0.01 0.00 84 1018.8
20260906100535 50 254 0.0 4.0 0.00 0.01 0.00 85 1018.8
20260906100030 50 265 1.0 4.0 0.00 0.01 0.00 85 1018.8
20260906095523 51 237 2.0 4.0 0.00 0.01 0.00 83 1018.8
20260906095031 51 252 0.0 2.0 0.00 0.01 0.00 81 1018.8
20260906094539 51 64 0.0 3.0 0.00 0.01 0.00 81 1018.6
20260906094036 51 65 1.0 3.0 0.00 0.01 0.00 81 1018.7
20260906093529 51 57 0.0 3.0 0.00 0.01 0.00 82 1018.8
20260906093035 51 57 1.0 3.0 0.00 0.01 0.00 82 1019.0
20260906092534 51 280 0.0 3.0 0.00 0.01 0.00 83 1019.1
20260906092026 51 274 0.0 1.0 0.00 0.01 0.00 84 1019.0
20260906091525 51 273 0.0 1.0 0.00 0.01 0.00 85 1019.1
20260906091027 51 273 0.0 4.0 0.00 0.01 0.00 85 1019.2
20260906090538 51 273 1.0 4.0 0.00 0.01 0.00 85 1019.2
20260906090033 51 269 0.0 0.0 0.00 0.01 0.00 84 1019.2
20260906085523 51 269 0.0 0.0 0.00 0.01 0.00 84 1019.1
20260906085035 52 269 0.0 0.0 0.00 0.01 0.00 84 1019.0
20260906084532 52 269 0.0 0.0 0.00 0.01 0.00 82 1018.9
20260906084021 52 269 0.0 0.0 0.00 0.01 0.00 82 1019.0
20260906083530 52 269 0.0 0.0 0.00 0.01 0.00 82 1018.8
20260906083028 51 268 0.0 0.0 0.00 0.01 0.00 83 1018.8
20260906082534 51 268 0.0 2.0 0.00 0.01 0.00 83 1018.8
20260906082025 51 268 0.0 4.0 0.00 0.01 0.00 81 1018.9
20260906081523 52 259 2.0 4.0 0.00 0.01 0.00 81 1019.0
20260906081030 53 283 0.0 4.0 0.00 0.01 0.00 78 1019.0
20260906080520 53 336 2.0 4.0 0.00 0.01 0.00 79 1019.0
20260906080034 53 329 1.0 4.0 0.00 0.01 0.00 80 1019.0
20260906075524 52 320 2.0 3.0 0.00 0.01 0.00 82 1019.2
20260906075033 52 270 0.0 3.0 0.00 0.01 0.00 82 1019.3
20260906074531 52 277 1.0 3.0 0.00 0.01 0.00 81 1019.5
20260906074023 52 251 0.0 0.0 0.00 0.01 0.00 81 1019.5
20260906073534 52 275 0.0 4.0 0.00 0.01 0.00 81 1019.5
20260906073032 53 263 2.0 4.0 0.00 0.01 0.00 80 1019.4
20260906072520 53 275 1.0 3.0 0.00 0.01 0.00 78 1019.7
20260906072029 54 263 1.0 3.0 0.00 0.01 0.00 79 1019.7
20260906071526 54 271 0.0 0.0 0.00 0.01 0.00 74 1019.7
20260906071038 54 271 0.0 0.0 0.00 0.01 0.00 74 1019.8
20260906070527 54 271 0.0 0.0 0.00 0.01 0.00 72 1019.9
20260906070024 54 271 0.0 0.0 0.00 0.01 0.01 72 1019.8
20260906065530 54 271 0.0 0.0 0.00 0.01 0.01 74 1019.9
20260906065023 54 271 0.0 0.0 0.00 0.01 0.01 77 1019.9
20260906064536 54 270 0.0 0.0 0.00 0.01 0.01 77 1019.9
20260906064027 54 270 0.0 0.0 0.00 0.01 0.01 77 1019.9
20260906063517 54 270 0.0 1.0 0.00 0.01 0.01 78 1019.9
20260906063036 54 270 0.0 4.0 0.00 0.01 0.01 77 1019.9
20260906062525 55 270 1.0 4.0 0.00 0.01 0.01 77 1019.9
20260906062034 55 261 1.0 3.0 0.00 0.01 0.01 78 1020.0
20260906061529 55 271 0.0 3.0 0.00 0.01 0.01 77 1019.9
20260906061018 55 274 0.0 3.0 0.00 0.01 0.01 75 1020.0
20260906060528 55 264 1.0 3.0 0.00 0.01 0.01 76 1020.0
20260906060021 56 258 1.0 2.0 0.00 0.01 0.01 75 1020.1
20260906055531 56 67 0.0 0.0 0.00 0.01 0.01 71 1020.1
20260906055020 57 63 0.0 1.0 0.00 0.01 0.01 64 1020.1
20260906054558 57 63 0.0 3.0 0.00 0.01 0.01 63 1020.1
20260906054026 57 63 1.0 3.0 0.00 0.01 0.01 65 1020.1
20260906053537 57 64 0.0 3.0 0.00 0.01 0.01 65 1020.1
20260906053031 57 64 0.0 2.0 0.00 0.01 0.01 65 1020.3
20260906052522 58 63 0.0 2.0 0.00 0.01 0.01 67 1020.3
20260906052035 58 211 0.0 1.0 0.00 0.01 0.01 69 1020.3
20260906051534 58 211 0.0 2.0 0.00 0.01 0.01 70 1020.4
20260906051035 59 225 1.0 2.0 0.00 0.01 0.01 68 1020.4
20260906050523 60 220 0.0 2.0 0.00 0.01 0.01 61 1020.4
20260906050028 60 346 0.0 0.0 0.00 0.01 0.01 58 1020.4
20260906045530 60 342 0.0 0.0 0.00 0.01 0.01 57 1020.4
20260906045018 61 342 0.0 3.0 0.00 0.01 0.01 56 1020.4
20260906044536 61 342 0.0 4.0 0.00 0.01 0.01 55 1020.4
20260906044026 61 330 2.0 5.0 0.00 0.01 0.01 55 1020.4
20260906043534 62 360 3.0 5.0 0.00 0.01 0.01 54 1020.5
20260906043028 62 326 1.0 7.0 0.00 0.01 0.01 55 1020.5
20260906042537 62 5 2.0 7.0 0.00 0.01 0.01 51 1020.5
20260906042025 62 57 3.0 8.0 0.00 0.01 0.01 51 1020.5
20260906041524 62 355 3.0 8.0 0.00 0.01 0.01 53 1020.4
20260906041029 62 46 1.0 5.0 0.00 0.01 0.01 54 1020.4
20260906040523 61 15 0.0 0.0 0.00 0.01 0.01 54 1020.3
20260906040020 62 355 0.0 0.0 0.00 0.01 0.01 54 1020.4
20260906035530 62 344 0.0 0.0 0.00 0.01 0.01 53 1020.4
20260906035020 62 5 0.0 0.0 0.00 0.01 0.01 52 1020.4
20260906034521 62 5 0.0 3.0 0.00 0.01 0.01 51 1020.5
20260906034027 62 355 0.0 5.0 0.00 0.01 0.01 49 1020.4
20260906033517 63 61 2.0 5.0 0.00 0.01 0.01 49 1020.4
20260906033036 63 52 3.0 6.0 0.00 0.01 0.01 48 1020.3
20260906032523 63 53 3.0 6.0 0.00 0.01 0.01 48 1020.3
20260906032034 63 82 3.0 6.0 0.00 0.01 0.01 47 1020.4
20260906031558 63 76 3.0 4.0 0.00 0.01 0.01 47 1020.3
20260906031022 63 49 1.0 4.0 0.00 0.01 0.01 47 1020.3
20260906030529 64 65 1.0 4.0 0.00 0.01 0.01 47 1020.3
20260906030022 64 98 1.0 4.0 0.00 0.01 0.01 46 1020.1
20260906025537 64 91 0.0 3.0 0.00 0.01 0.01 46 1020.1
20260906025030 64 15 0.0 4.0 0.00 0.01 0.01 46 1020.1
20260906024546 64 294 0.0 8.0 0.00 0.01 0.01 45 1020.0
20260906024031 65 290 3.0 8.0 0.00 0.01 0.01 45 1019.9
20260906023525 65 324 3.0 10.0 0.00 0.01 0.01 45 1019.9
20260906023020 65 296 4.0 10.0 0.00 0.01 0.01 45 1019.9
20260906022528 65 310 2.0 11.0 0.00 0.01 0.01 45 1019.9
20260906022037 66 355 4.0 11.0 0.00 0.01 0.01 43 1020.0
20260906021534 66 324 3.0 11.0 0.00 0.01 0.01 43 1020.1
20260906021021 66 321 2.0 11.0 0.00 0.01 0.01 42 1019.9
20260906020534 67 321 4.0 9.0 0.00 0.01 0.01 41 1020.0
20260906020024 67 330 3.0 6.0 0.00 0.01 0.01 41 1020.0
20260906015534 67 302 2.0 8.0 0.00 0.01 0.01 42 1019.8
20260906015027 67 281 5.0 10.0 0.00 0.01 0.01 42 1019.8
20260906014523 67 321 6.0 10.0 0.00 0.01 0.01 41 1019.6
20260906014036 67 313 4.0 6.0 0.00 0.01 0.01 41 1019.6
20260906013523 67 309 2.0 6.0 0.00 0.01 0.01 41 1019.6
20260906013020 67 306 4.0 8.0 0.00 0.01 0.01 40 1019.4
20260906012527 68 345 3.0 8.0 0.00 0.01 0.01 39 1019.6
20260906012017 68 311 3.0 8.0 0.00 0.01 0.01 39 1019.4
20260906011534 68 291 2.0 8.0 0.00 0.01 0.01 40 1019.5
20260906011021 68 303 2.0 8.0 0.00 0.01 0.01 39 1019.6
20260906010532 69 303 4.0 8.0 0.00 0.01 0.01 37 1019.6
20260906010041 69 284 2.0 8.0 0.00 0.01 0.01 37 1019.5
20260906005535 69 321 3.0 7.0 0.00 0.01 0.01 36 1019.6
20260906005025 69 290 4.0 6.0 0.00 0.01 0.01 35 1019.6
20260906004520 69 294 3.0 7.0 0.00 0.01 0.01 35 1019.4
20260906004032 69 292 3.0 7.0 0.00 0.01 0.01 35 1019.5
20260906003525 70 290 2.0 5.0 0.00 0.01 0.01 35 1019.4
20260906003021 70 310 1.0 6.0 0.00 0.01 0.01 36 1019.2
20260906002529 70 302 2.0 6.0 0.00 0.01 0.01 38 1018.9
20260906002024 70 240 2.0 6.0 0.00 0.01 0.01 40 1019.1
20260906001522 70 266 3.0 5.0 0.00 0.01 0.01 37 1019.0
20260906001026 70 254 2.0 6.0 0.00 0.01 0.01 38 1019.0
20260906000537 70 255 2.0 6.0 0.00 0.01 0.01 36 1019.0
20260906000030 70 252 1.0 4.0 0.00 0.01 0.01 36 1019.0
20260905235519 70 265 2.0 6.0 0.00 0.01 0.01 34 1019.1
20260905235031 70 263 2.0 6.0 0.00 0.01 0.01 34 1019.2
20260905234525 70 267 2.0 4.0 0.00 0.01 0.01 35 1019.3
20260905234035 70 279 2.0 4.0 0.00 0.01 0.01 39 1019.3
20260905233523 70 237 1.0 4.0 0.00 0.01 0.01 34 1019.4
20260905233019 70 254 1.0 5.0 0.00 0.01 0.01 34 1019.4
20260905232533 70 253 2.0 5.0 0.00 0.01 0.01 33 1019.3
20260905232021 70 256 0.0 3.0 0.00 0.01 0.01 37 1019.3
20260905231535 70 254 1.0 2.0 0.00 0.01 0.01 36 1019.2
20260905231025 70 248 0.0 0.0 0.00 0.01 0.01 34 1019.2
20260905230538 70 258 0.0 3.0 0.00 0.01 0.01 33 1019.2
20260905230032 71 239 0.0 3.0 0.00 0.01 0.01 34 1019.2
20260905225538 70 252 0.0 0.0 0.00 0.01 0.01 36 1019.1
20260905225027 70 235 0.0 0.0 0.00 0.01 0.01 37 1019.1
20260905224523 70 247 0.0 0.0 0.00 0.01 0.01 35 1019.3
20260905224030 70 239 0.0 0.0 0.00 0.01 0.01 33 1019.4
20260905223521 70 219 0.0 0.0 0.00 0.01 0.01 33 1019.4
20260905223018 70 220 0.0 0.0 0.00 0.01 0.01 35 1019.5
20260905222526 71 220 0.0 0.0 0.00 0.01 0.01 37 1019.6
20260905222020 70 213 0.0 0.0 0.00 0.01 0.01 38 1019.7
20260905221532 70 187 0.0 0.0 0.00 0.01 0.01 36 1019.7
20260905221024 70 180 0.0 0.0 0.00 0.01 0.01 35 1019.6
20260905220537 70 164 0.0 0.0 0.00 0.01 0.01 34 1019.6
20260905220033 70 171 0.0 0.0 0.00 0.01 0.01 33 1019.6
20260905215519 70 171 0.0 0.0 0.00 0.01 0.01 37 1019.7
20260905215031 71 111 0.0 0.0 0.00 0.01 0.01 36 1019.7
20260905214524 71 150 0.0 3.0 0.00 0.01 0.01 38 1019.9
20260905214035 71 164 0.0 3.0 0.00 0.01 0.01 36 1020.0
20260905213525 71 194 1.0 3.0 0.00 0.01 0.01 38 1020.0
20260905213020 71 180 1.0 3.0 0.00 0.01 0.01 39 1020.1
20260905212531 70 204 2.0 3.0 0.00 0.01 0.01 39 1020.1
20260905212021 70 203 1.0 3.0 0.00 0.01 0.01 41 1020.1
20260905211558 70 205 0.0 4.0 0.00 0.01 0.01 40 1020.1
20260905211025 70 205 2.0 4.0 0.00 0.01 0.01 39 1020.2
20260905210520 70 208 2.0 4.0 0.00 0.01 0.01 40 1020.4
20260905210042 70 217 3.0 4.0 0.00 0.01 0.01 37 1020.3
20260905205522 70 217 2.0 5.0 0.00 0.01 0.01 36 1020.3
20260905205035 70 216 3.0 5.0 0.00 0.01 0.01 38 1020.4
20260905204529 70 213 3.0 5.0 0.00 0.01 0.01 38 1020.4
20260905204036 69 215 2.0 4.0 0.00 0.01 0.01 40 1020.3
20260905203526 69 198 2.0 4.0 0.00 0.01 0.01 38 1020.4
20260905203024 69 223 2.0 3.0 0.00 0.01 0.01 40 1020.3
20260905202536 69 225 2.0 4.0 0.00 0.01 0.01 40 1020.4
20260905202024 69 202 2.0 5.0 0.00 0.01 0.01 41 1020.4
20260905201530 68 217 2.0 5.0 0.00 0.01 0.01 41 1020.4
20260905201028 68 237 2.0 4.0 0.00 0.01 0.01 42 1020.4
20260905200544 68 326 1.0 5.0 0.00 0.01 0.01 45 1020.7
20260905200036 68 297 0.0 5.0 0.00 0.01 0.01 45 1020.7
20260905195525 68 340 1.0 5.0 0.00 0.01 0.01 42 1020.7
20260905195036 67 286 2.0 5.0 0.00 0.01 0.01 43 1020.8
20260905194533 67 279 2.0 5.0 0.00 0.01 0.01 49 1020.8
20260905194020 67 19 1.0 5.0 0.00 0.01 0.01 49 1020.8
20260905193531 67 317 2.0 5.0 0.00 0.01 0.01 49 1020.9
20260905193026 66 18 2.0 5.0 0.00 0.01 0.01 52 1020.8
20260905192541 67 15 1.0 3.0 0.00 0.01 0.01 55 1020.8
20260905192027 66 355 1.0 2.0 0.00 0.01 0.01 58 1020.8
20260905191523 66 186 0.0 2.0 0.00 0.01 0.01 63 1020.9
20260905191031 65 109 0.0 2.0 0.00 0.01 0.01 60 1021.0
20260905190522 65 63 0.0 2.0 0.00 0.01 0.01 60 1021.2
20260905190035 66 159 0.0 2.0 0.00 0.01 0.01 62 1021.2
20260905185524 65 55 0.0 3.0 0.00 0.01 0.01 61 1021.2
20260905185035 65 187 0.0 3.0 0.00 0.01 0.01 62 1021.3
20260905184530 64 53 0.0 3.0 0.00 0.01 0.01 66 1021.3
20260905184022 64 147 1.0 3.0 0.00 0.01 0.01 65 1021.4
20260905183534 64 150 0.0 2.0 0.00 0.01 0.01 65 1021.5
20260905183033 63 267 0.0 4.0 0.00 0.01 0.01 65 1021.6
20260905182537 63 73 0.0 4.0 0.00 0.01 0.01 64 1021.6
20260905182027 62 39 1.0 4.0 0.00 0.01 0.01 65 1021.5
20260905181521 62 55 1.0 4.0 0.00 0.01 0.01 66 1021.5
20260905181033 61 20 2.0 4.0 0.00 0.01 0.01 67 1021.6
20260905180523 61 23 1.0 4.0 0.00 0.01 0.01 68 1021.5
20260905180017 61 17 1.0 4.0 0.00 0.01 0.01 66 1021.7
20260905175530 61 218 0.0 2.0 0.00 0.01 0.01 67 1021.7
20260905175018 60 162 0.0 3.0 0.00 0.01 0.01 69 1021.7
20260905174536 59 355 1.0 3.0 0.00 0.01 0.01 69 1021.7
20260905174025 60 341 1.0 3.0 0.00 0.01 0.01 69 1021.8
20260905173539 59 9 1.0 3.0 0.00 0.01 0.01 70 1021.9
20260905173052 59 16 1.0 5.0 0.00 0.01 0.01 71 1021.8
20260905172522 58 66 3.0 4.0 0.00 0.01 0.01 73 1021.9
20260905172030 58 355 2.0 5.0 0.00 0.01 0.01 73 1022.0
20260905171627 58 38 1.0 7.0 0.00 0.01 0.01 75 1021.9
20260905171035 57 55 1.0 6.0 0.00 0.01 0.01 77 1021.8
20260905170524 56 325 2.0 5.0 0.00 0.01 0.01 80 1021.8
20260905170021 55 39 2.0 5.0 0.00 0.01 0.01 81 1021.9
20260905165529 55 19 2.0 5.0 0.00 0.01 0.01 83 1021.9
20260905165022 54 14 1.0 6.0 0.00 0.01 0.01 84 1021.9
20260905164537 54 17 3.0 6.0 0.00 0.01 0.01 84 1022.0
20260905164031 54 342 3.0 6.0 0.00 0.01 0.01 85 1021.9
20260905163534 53 325 3.0 5.0 0.00 0.01 0.01 86 1021.9
20260905163031 53 5 2.0 6.0 0.00 0.01 0.01 87 1021.9
20260905162525 53 21 3.0 6.0 0.00 0.01 0.01 87 1021.9
20260905162034 53 325 3.0 6.0 0.00 0.01 0.01 87 1022.0
20260905161532 53 13 2.0 4.0 0.00 0.01 0.01 87 1022.0
20260905161020 52 360 2.0 5.0 0.00 0.01 0.01 87 1021.9
20260905160528 52 24 1.0 5.0 0.00 0.01 0.01 89 1021.9
20260905160025 52 355 2.0 4.0 0.00 0.02 0.01 89 1021.9
20260905155535 52 22 2.0 4.0 0.00 0.02 0.01 89 1021.9
20260905155023 52 355 0.0 3.0 0.00 0.02 0.01 90 1021.9
20260905154520 52 351 2.0 3.0 0.00 0.02 0.01 90 1021.9
20260905154034 51 298 1.0 2.0 0.00 0.02 0.01 91 1022.0
20260905153521 51 70 0.0 3.0 0.00 0.02 0.01 92 1022.1
20260905153034 50 63 1.0 3.0 0.00 0.02 0.01 92 1022.1
20260905152525 50 61 1.0 3.0 0.00 0.02 0.01 92 1022.1
20260905152032 50 51 2.0 3.0 0.00 0.02 0.01 93 1022.1
20260905151529 50 45 1.0 3.0 0.00 0.02 0.01 93 1022.1
20260905151026 49 59 1.0 2.0 0.00 0.02 0.01 93 1022.0
20260905150531 49 268 0.0 1.0 0.00 0.02 0.01 94 1022.0
20260905150026 49 268 0.0 2.0 0.00 0.02 0.01 94 1022.0
20260905145536 49 268 1.0 3.0 0.00 0.02 0.01 94 1022.0
20260905145026 49 325 0.0 2.0 0.00 0.02 0.01 94 1022.0
20260905144522 49 72 0.0 1.0 0.00 0.02 0.01 94 1021.9
20260905144133 48 71 0.0 1.0 0.00 0.02 0.01 94 1021.9
20260905143520 48 71 0.0 2.0 0.00 0.02 0.01 94 1021.9
20260905143046 48 71 0.0 2.0 0.00 0.02 0.01 94 1021.9
20260905142524 48 69 0.0 2.0 0.00 0.02 0.01 94 1021.8
20260905142035 48 69 0.0 2.0 0.00 0.02 0.01 94 1021.8
20260905141531 47 59 1.0 2.0 0.00 0.02 0.01 94 1021.8
20260905141038 47 54 0.0 2.0 0.00 0.02 0.01 95 1021.7
20260905140534 47 54 0.0 3.0 0.00 0.02 0.01 94 1021.7
20260905140025 47 64 1.0 4.0 0.00 0.02 0.01 95 1021.6
20260905135541 47 78 1.0 4.0 0.00 0.05 0.01 94 1021.6
20260905135026 47 84 2.0 4.0 0.00 0.05 0.01 95 1021.5
20260905134523 48 271 0.0 2.0 0.00 0.05 0.01 95 1021.5
20260905134032 48 267 0.0 2.0 0.00 0.05 0.01 95 1021.5
20260905133521 48 263 0.0 2.0 0.00 0.05 0.01 95 1021.4
20260905133037 48 237 0.0 1.0 0.00 0.05 0.01 95 1021.4
20260905132526 48 238 0.0 2.0 0.00 0.05 0.01 95 1021.2
20260905132038 47 278 0.0 3.0 0.00 0.05 0.01 94 1021.2
20260905131532 48 258 0.0 3.0 0.01 0.05 0.01 94 1021.1
20260905131020 48 257 0.0 2.0 0.01 0.05 0.01 95 1021.0
20260905130531 47 57 0.0 3.0 0.01 0.05 0.01 95 1021.0
20260905130027 47 57 1.0 3.0 0.01 0.05 0.01 94 1021.0
20260905125518 47 59 1.0 3.0 0.01 0.06 0.01 95 1021.0
20260905125028 47 67 2.0 3.0 0.01 0.06 0.01 95 1021.0
20260905124534 47 77 0.0 3.0 0.01 0.06 0.01 95 1020.9
20260905124032 47 77 0.0 3.0 0.01 0.06 0.01 95 1021.0
20260905123522 47 50 0.0 2.0 0.01 0.06 0.01 95 1020.8
20260905123036 47 271 0.0 0.0 0.01 0.06 0.01 95 1020.9
20260905122531 47 271 0.0 0.0 0.01 0.06 0.01 95 1020.9
20260905122036 47 271 0.0 0.0 0.01 0.06 0.01 95 1020.9
20260905121533 47 271 0.0 0.0 0.00 0.05 0.00 95 1020.9
20260905121021 47 265 0.0 1.0 0.00 0.05 0.00 95 1020.8
20260905120532 47 265 0.0 4.0 0.00 0.05 0.00 95 1020.8
20260905120027 47 265 2.0 6.0 0.00 0.05 0.00 95 1020.8
20260905115535 47 263 2.0 4.0 0.00 0.05 0.00 94 1020.9
20260905115025 47 251 0.0 2.0 0.00 0.05 0.00 94 1020.9
20260905114520 47 259 0.0 2.0 0.00 0.05 0.00 94 1020.7
20260905114036 47 80 0.0 2.0 0.00 0.05 0.00 94 1020.5
20260905113526 46 54 1.0 2.0 0.00 0.05 0.00 94 1020.4
20260905113022 46 54 0.0 1.0 0.00 0.05 0.00 93 1020.5
20260905112533 47 54 0.0 2.0 0.00 0.05 0.00 94 1020.4
20260905112021 47 47 0.0 2.0 0.00 0.05 0.00 94 1020.4